User: anonymous   Login
Location: Laguna de la Cañada del Gallo
(40.3974°N, 5.2096°W)
Time: 08:15:46
(UTC+00:00)
Language:

Cosmos 1459 Rocket - Orbit

View from above orbital plane
View from above orbital plane
View from above satellite
View from above satellite

Ground track
Ground track

The orbit data is extracted from the following two-line orbital elements,

1 14059U 83042B   24166.94777288  .00000153  00000-0  13464-3 0  9997
2 14059  82.9717 325.2576 0041185 290.7291  68.9455 13.78942139 67528
Epoch (UTC): 14 June 2024 22:44:47
Eccentricity: 0.0041185
inclination: 82.9717°
perigee height: 937 km
apogee height: 998 km
right ascension of ascending node: 325.2576°
argument of perigee: 290.7291°
revolutions per day: 13.78942139
mean anomaly at epoch: 68.9455°
orbit number at epoch: 6752

The dashed part of the orbit path shows where the satellite is in the earth's shadow,  

DLR